FW2216 Weather Reports


time (UTC)temp
C
wind
direction
speed
KPH
gust
KPH
rain 1hr
cm
rain 24hr
cm
rain mn
cm
humidity
%
barometer
mb
20260505165331 23 300 3.2 12.9 0.00 0.00 0.00 40 1022.3
20260505164823 23 306 3.2 12.9 0.00 0.00 0.00 37 1022.3
20260505164318 23 250 3.2 8.0 0.00 0.00 0.00 39 1022.2
20260505163827 23 252 3.2 8.0 0.00 0.00 0.00 42 1022.2
20260505163339 23 283 3.2 6.4 0.00 0.00 0.00 41 1022.2
20260505162828 23 278 1.6 4.8 0.00 0.00 0.00 41 1022.2
20260505162318 22 303 1.6 4.8 0.00 0.00 0.00 46 1022.2
20260505161828 22 296 0.0 6.4 0.00 0.00 0.00 51 1022.2
20260505161341 21 329 0.0 3.2 0.00 0.00 0.00 55 1022.3
20260505160830 21 278 0.0 4.8 0.00 0.00 0.00 59 1022.3
20260505160320 20 293 0.0 3.2 0.00 0.00 0.00 50 1022.4
20260505153345 18 86 0.0 1.6 0.00 0.00 0.00 70 1022.5
20260505152834 17 108 0.0 1.6 0.00 0.00 0.00 74 1022.7
20260505152326 17 108 0.0 1.6 0.00 0.00 0.00 75 1022.8
20260505151836 17 107 0.0 1.6 0.00 0.00 0.00 75 1023.0
20260505151327 17 108 0.0 0.0 0.00 0.00 0.00 75 1023.0
20260505150818 16 107 0.0 1.6 0.00 0.00 0.00 75 1023.0
20260505150332 16 107 0.0 1.6 0.00 0.00 0.00 77 1022.9
20260505140321 11 104 0.0 0.0 0.00 0.00 0.00 90 1023.4
20260505124821 7 104 0.0 0.0 0.00 0.00 0.00 97 1023.5
20260505124335 7 104 0.0 0.0 0.00 0.00 0.00 97 1023.4
20260505123824 7 105 0.0 0.0 0.00 0.00 0.00 97 1023.5
20260505123354 7 104 0.0 0.0 0.00 0.00 0.00 97 1023.6
20260505122823 6 104 0.0 0.0 0.00 0.00 0.00 97 1023.6
20260505122331 6 105 0.0 0.0 0.00 0.00 0.00 97 1023.6
20260505121821 6 104 0.0 0.0 0.00 0.00 0.00 97 1023.6
20260505121352 6 105 0.0 0.0 0.00 0.00 0.00 97 1023.4
20260505120821 6 104 0.0 0.0 0.00 0.00 0.00 97 1023.4
20260505120330 6 105 0.0 0.0 0.00 0.00 0.00 96 1023.4
20260505115820 6 104 0.0 0.0 0.00 0.00 0.00 96 1023.4
20260505115331 6 104 0.0 0.0 0.00 0.00 0.00 96 1023.3
20260505114822 6 104 0.0 0.0 0.00 0.00 0.00 96 1023.4
20260505114336 5 104 0.0 0.0 0.00 0.00 0.00 96 1023.3
20260505113827 5 104 0.0 0.0 0.00 0.00 0.00 96 1023.2
20260505113336 5 104 0.0 0.0 0.00 0.00 0.00 96 1023.1
20260505112826 5 104 0.0 0.0 0.00 0.00 0.00 96 1023.1
20260505112335 5 104 0.0 0.0 0.00 0.00 0.00 96 1023.0
20260505111825 5 105 0.0 0.0 0.00 0.00 0.00 96 1022.9
20260505111336 5 104 0.0 0.0 0.00 0.00 0.00 96 1022.9
20260505110826 5 104 0.0 0.0 0.00 0.00 0.00 95 1022.8
20260505110323 5 104 0.0 0.0 0.00 0.00 0.00 95 1022.8
20260505101839 6 104 0.0 0.0 0.00 0.00 0.00 95 1022.9
20260505101327 6 104 0.0 0.0 0.00 0.00 0.00 95 1022.9
20260505100822 6 104 0.0 0.0 0.00 0.00 0.00 95 1022.8
20260505100333 6 105 0.0 0.0 0.00 0.00 0.00 95 1022.8
20260505095824 6 104 0.0 0.0 0.00 0.00 0.00 95 1022.8
20260505095334 6 104 0.0 0.0 0.00 0.00 0.00 95 1022.9
20260505094825 6 104 0.0 0.0 0.00 0.00 0.00 95 1022.9
20260505094356 6 104 0.0 0.0 0.00 0.00 0.00 95 1022.8
20260505093825 6 105 0.0 0.0 0.00 0.00 0.00 95 1022.9
20260505093335 6 105 0.0 0.0 0.00 0.00 0.00 95 1022.9
20260505092825 6 104 0.0 0.0 0.00 0.00 0.00 94 1022.8
20260505092320 6 104 0.0 0.0 0.00 0.00 0.00 94 1022.8
20260505091831 6 104 0.0 0.0 0.00 0.00 0.00 94 1022.7
20260505091322 6 105 0.0 0.0 0.00 0.00 0.00 94 1022.7
20260505090832 6 105 0.0 0.0 0.00 0.00 0.00 94 1022.7
20260505090324 7 104 0.0 0.0 0.00 0.00 0.00 94 1022.8
20260505085833 7 104 0.0 0.0 0.00 0.00 0.00 94 1022.8
20260505085325 7 104 0.0 0.0 0.00 0.00 0.00 94 1022.7
20260505084836 7 104 0.0 0.0 0.00 0.00 0.00 94 1022.7
20260505084326 7 104 0.0 0.0 0.00 0.00 0.00 94 1022.7
20260505083820 7 104 0.0 0.0 0.00 0.00 0.00 94 1022.6
20260505083332 7 104 0.0 0.0 0.00 0.00 0.00 94 1022.6
20260505082821 7 104 0.0 0.0 0.00 0.00 0.00 94 1022.6
20260505082332 7 104 0.0 0.0 0.00 0.00 0.00 94 1022.6
20260505081823 7 104 0.0 0.0 0.00 0.00 0.00 94 1022.5
20260505081353 7 104 0.0 0.0 0.00 0.00 0.00 93 1022.5
20260505080843 7 105 0.0 0.0 0.00 0.00 0.00 93 1022.4
20260505080333 7 104 0.0 0.0 0.00 0.00 0.00 93 1022.4
20260505075824 7 104 0.0 0.0 0.00 0.00 0.00 93 1022.4
20260505075354 7 104 0.0 0.0 0.00 0.00 0.00 93 1022.4
20260505074828 7 105 0.0 0.0 0.00 0.00 0.00 93 1022.4
20260505074317 7 104 0.0 0.0 0.00 0.00 0.00 93 1022.4
20260505073828 7 104 0.0 0.0 0.00 0.00 0.00 93 1022.3
20260505073338 7 105 0.0 0.0 0.00 0.00 0.00 93 1022.3
20260505072827 7 104 0.0 0.0 0.00 0.00 0.00 92 1022.2
20260505072336 8 105 0.0 0.0 0.00 0.00 0.00 92 1022.2
20260505071827 8 104 0.0 0.0 0.00 0.00 0.00 92 1022.2
20260505071319 8 105 0.0 0.0 0.00 0.00 0.00 92 1022.2
20260505070849 8 104 0.0 0.0 0.00 0.00 0.00 91 1022.1
20260505070339 8 104 0.0 0.0 0.00 0.00 0.00 91 1022.2
20260505065847 8 105 0.0 0.0 0.00 0.00 0.00 91 1022.2
20260505065338 8 104 0.0 0.0 0.00 0.00 0.00 91 1022.2
20260505064827 8 104 0.0 0.0 0.00 0.00 0.00 91 1022.3
20260505064319 8 104 0.0 0.0 0.00 0.00 0.00 91 1022.3
20260505063829 8 104 0.0 1.6 0.00 0.00 0.00 90 1022.3
20260505063319 8 105 0.0 1.6 0.00 0.00 0.00 90 1022.3
20260505062828 8 104 0.0 0.0 0.00 0.00 0.00 90 1022.2
20260505062318 8 104 0.0 1.6 0.00 0.00 0.00 90 1022.2
20260505061828 8 104 0.0 1.6 0.00 0.00 0.00 90 1022.3
20260505061340 9 105 0.0 0.0 0.00 0.00 0.00 89 1022.3
20260505060830 9 105 0.0 0.0 0.00 0.00 0.00 89 1022.3
20260505060321 9 104 0.0 0.0 0.00 0.00 0.00 89 1022.3
20260505055836 9 105 0.0 0.0 0.00 0.00 0.00 89 1022.4
20260505055326 9 104 0.0 0.0 0.00 0.00 0.00 89 1022.4
20260505054835 9 105 0.0 0.0 0.00 0.00 0.00 89 1022.4
20260505054325 9 105 0.0 0.0 0.00 0.00 0.00 88 1022.3
20260505053834 10 105 0.0 0.0 0.00 0.00 0.00 88 1022.3
20260505053324 10 104 0.0 0.0 0.00 0.00 0.00 88 1022.3
20260505052835 10 104 0.0 0.0 0.00 0.00 0.00 88 1022.4
20260505052325 10 104 0.0 0.0 0.00 0.00 0.00 88 1022.4
20260505051817 10 105 0.0 0.0 0.00 0.00 0.00 88 1022.3
20260505051331 10 104 0.0 0.0 0.00 0.00 0.00 87 1022.3
20260505050821 10 104 0.0 0.0 0.00 0.00 0.00 87 1022.2
20260505050333 10 104 0.0 0.0 0.00 0.00 0.00 87 1022.3
20260505041320 11 105 0.0 0.0 0.00 0.00 0.00 84 1022.1
20260505040829 11 104 0.0 0.0 0.00 0.00 0.00 84 1022.1
20260505040320 11 104 0.0 0.0 0.00 0.00 0.00 83 1022.0
20260505035824 11 104 0.0 0.0 0.00 0.00 0.00 83 1022.1
20260505035334 11 104 0.0 0.0 0.00 0.00 0.00 82 1022.1
20260505034825 11 104 0.0 0.0 0.00 0.00 0.00 82 1022.1
20260505034319 11 104 0.0 0.0 0.00 0.00 0.00 82 1022.3
20260505033830 11 104 0.0 0.0 0.00 0.00 0.00 81 1022.3
20260505033321 12 104 0.0 0.0 0.00 0.00 0.00 81 1022.2
20260505032832 12 105 0.0 0.0 0.00 0.00 0.00 81 1022.2
20260505032323 12 104 0.0 0.0 0.00 0.00 0.00 80 1022.3
20260505031849 12 105 0.0 0.0 0.00 0.00 0.00 80 1022.2
20260505031320 12 104 0.0 0.0 0.00 0.00 0.00 79 1022.3
20260505030830 12 104 0.0 0.0 0.00 0.00 0.00 79 1022.3
20260505030320 12 104 0.0 0.0 0.00 0.00 0.00 77 1022.3
20260505025829 12 104 0.0 0.0 0.00 0.00 0.00 77 1022.3
20260505025321 12 104 0.0 0.0 0.00 0.00 0.00 76 1022.4
20260505024853 13 104 0.0 0.0 0.00 0.00 0.00 75 1022.3
20260505024321 13 104 0.0 0.0 0.00 0.00 0.00 74 1022.3
20260505023830 13 104 0.0 0.0 0.00 0.00 0.00 74 1022.3
20260505023319 13 104 0.0 0.0 0.00 0.00 0.00 73 1022.3
20260505022831 13 104 0.0 0.0 0.00 0.00 0.00 73 1022.2
20260505022322 13 104 0.0 0.0 0.00 0.00 0.00 73 1022.2
20260505021832 13 104 0.0 0.0 0.00 0.00 0.00 73 1022.0
20260505021323 13 104 0.0 0.0 0.00 0.00 0.00 72 1022.0
20260505020818 13 104 0.0 0.0 0.00 0.00 0.00 72 1022.0
20260505020328 14 104 0.0 0.0 0.00 0.00 0.00 72 1021.9
20260505015817 14 104 0.0 0.0 0.00 0.00 0.00 71 1021.9
20260505015327 14 104 0.0 0.0 0.00 0.00 0.00 72 1021.7
20260505014838 14 104 0.0 0.0 0.00 0.00 0.00 71 1021.7
20260505014349 15 104 0.0 0.0 0.00 0.00 0.00 71 1021.6
20260505013836 15 104 0.0 0.0 0.00 0.00 0.00 69 1021.6
20260505013326 15 104 0.0 0.0 0.00 0.00 0.00 69 1021.5
20260505012819 15 104 0.0 0.0 0.00 0.00 0.00 69 1021.4
20260505012329 15 104 0.0 0.0 0.00 0.00 0.00 68 1021.4
20260505011824 15 104 0.0 0.0 0.00 0.00 0.00 69 1021.3
20260505011334 16 104 0.0 0.0 0.00 0.00 0.00 68 1021.2
20260505010826 16 104 0.0 0.0 0.00 0.00 0.00 68 1021.2
20260505010317 16 104 0.0 0.0 0.00 0.00 0.00 65 1021.2
20260505005828 16 104 0.0 0.0 0.00 0.00 0.00 65 1021.1
20260505005319 16 104 0.0 1.6 0.00 0.00 0.00 67 1021.0
20260505004829 16 104 0.0 1.6 0.00 0.00 0.00 66 1021.0
20260505004321 17 104 0.0 1.6 0.00 0.00 0.00 66 1020.8
20260505003817 17 104 0.0 1.6 0.00 0.00 0.00 66 1020.8
20260505003327 17 104 0.0 1.6 0.00 0.00 0.00 64 1020.7
20260505002818 17 104 0.0 1.6 0.00 0.00 0.00 64 1020.6
20260505002348 17 104 0.0 1.6 0.00 0.00 0.00 64 1020.5
20260505001818 17 104 0.0 1.6 0.00 0.00 0.00 64 1020.5
20260505001329 18 103 0.0 1.6 0.00 0.00 0.00 64 1020.4
20260505000819 18 103 0.0 3.2 0.00 0.00 0.00 62 1020.3
20260505000329 18 104 0.0 3.2 0.00 0.00 0.00 62 1020.4
20260504235821 18 103 0.0 1.6 0.00 0.00 0.00 62 1020.4
20260504235352 19 103 0.0 3.2 0.00 0.00 0.00 61 1020.2
20260504234827 19 113 0.0 3.2 0.00 0.00 0.00 59 1020.2
20260504234340 20 130 0.0 1.6 0.00 0.00 0.00 58 1020.1
20260504233830 20 203 0.0 3.2 0.00 0.00 0.00 54 1020.1
20260504233320 20 108 0.0 3.2 0.00 0.00 0.00 53 1020.1
20260504232830 20 267 1.6 3.2 0.00 0.00 0.00 50 1020.0
20260504232322 21 123 0.0 3.2 0.00 0.00 0.00 52 1020.0
20260504231832 21 260 0.0 6.4 0.00 0.00 0.00 48 1019.9
20260504231343 21 240 1.6 6.4 0.00 0.00 0.00 46 1019.9
20260504230833 21 265 0.0 4.8 0.00 0.00 0.00 49 1019.8
20260504230328 21 246 1.6 4.8 0.00 0.00 0.00 46 1019.8
20260504225819 21 262 1.6 4.8 0.00 0.00 0.00 45 1019.7
20260504225327 21 267 0.0 3.2 0.00 0.00 0.00 52 1019.6
20260504224818 21 104 0.0 1.6 0.00 0.00 0.00 51 1019.6
20260504224327 21 105 0.0 1.6 0.00 0.00 0.00 50 1019.6
20260504223857 21 105 0.0 1.6 0.00 0.00 0.00 48 1019.6
20260504223325 22 105 0.0 3.2 0.00 0.00 0.00 46 1019.5
20260504222816 22 104 1.6 3.2 0.00 0.00 0.00 44 1019.5
20260504222328 23 97 1.6 3.2 0.00 0.00 0.00 42 1019.5
20260504221823 23 113 0.0 3.2 0.00 0.00 0.00 41 1019.4
20260504221334 23 231 0.0 3.2 0.00 0.00 0.00 36 1019.4
20260504220825 24 124 0.0 4.8 0.00 0.00 0.00 37 1019.4
20260504220335 24 234 0.0 4.8 0.00 0.00 0.00 33 1019.3
20260504215846 24 269 1.6 9.7 0.00 0.00 0.00 32 1019.2
20260504215335 24 280 1.6 9.7 0.00 0.00 0.00 34 1019.3
20260504214827 24 313 0.0 4.8 0.00 0.00 0.00 32 1019.2
20260504214317 24 279 1.6 4.8 0.00 0.00 0.00 29 1019.1
20260504213828 24 229 0.0 6.4 0.00 0.00 0.00 31 1019.1
20260504213324 25 300 0.0 4.8 0.00 0.00 0.00 35 1019.2
20260504212836 25 115 0.0 4.8 0.00 0.00 0.00 34 1019.1
20260504212327 25 259 1.6 8.0 0.00 0.00 0.00 28 1019.1
20260504211819 25 3 0.0 8.0 0.00 0.00 0.00 28 1019.1
20260504211329 25 145 1.6 3.2 0.00 0.00 0.00 29 1019.2
20260504210820 25 97 0.0 4.8 0.00 0.00 0.00 33 1019.3
20260504210331 25 321 1.6 4.8 0.00 0.00 0.00 30 1019.3
20260504205821 25 86 0.0 1.6 0.00 0.00 0.00 32 1019.3
20260504205330 25 236 0.0 3.2 0.00 0.00 0.00 31 1019.4
20260504204825 25 238 1.6 3.2 0.00 0.00 0.00 31 1019.4
20260504204334 26 108 1.6 3.2 0.00 0.00 0.00 34 1019.4
20260504203824 26 212 0.0 4.8 0.00 0.00 0.00 31 1019.5
20260504203336 26 215 3.2 4.8 0.00 0.00 0.00 29 1019.5
20260504202826 26 205 1.6 4.8 0.00 0.00 0.00 31 1019.6
20260504202317 26 265 0.0 3.2 0.00 0.00 0.00 30 1019.7
20260504201828 26 252 0.0 6.4 0.00 0.00 0.00 30 1019.7
20260504201338 27 122 1.6 8.0 0.00 0.00 0.00 29 1019.8
20260504200827 27 286 0.0 3.2 0.00 0.00 0.00 29 1019.8
20260504200322 27 120 0.0 1.6 0.00 0.00 0.00 28 1019.8
20260504195832 27 115 0.0 1.6 0.00 0.00 0.00 30 1019.8
20260504195322 27 115 0.0 3.2 0.00 0.00 0.00 29 1020.0
20260504194834 26 259 0.0 3.2 0.00 0.00 0.00 30 1020.1
20260504194325 26 137 0.0 1.6 0.00 0.00 0.00 31 1020.2
20260504193818 26 105 0.0 3.2 0.00 0.00 0.00 30 1020.3
20260504193329 26 234 0.0 3.2 0.00 0.00 0.00 30 1020.3
20260504192820 26 199 0.0 4.8 0.00 0.00 0.00 30 1020.4
20260504192409 26 146 1.6 4.8 0.00 0.00 0.00 30 1020.5
20260504190329 25 242 0.0 3.2 0.00 0.00 0.00 33 1020.9
20260504185818 25 106 1.6 4.8 0.00 0.00 0.00 32 1021.0
20260504185325 25 257 0.0 8.0 0.00 0.00 0.00 33 1021.1
20260504184835 25 255 0.0 4.8 0.00 0.00 0.00 32 1021.1
20260504184324 25 113 1.6 4.8 0.00 0.00 0.00 32 1021.2
20260504183834 25 271 1.6 4.8 0.00 0.00 0.00 33 1021.3
20260504183324 25 249 1.6 4.8 0.00 0.00 0.00 34 1021.4
20260504182833 25 251 1.6 4.8 0.00 0.00 0.00 33 1021.5
20260504182340 25 203 0.0 3.2 0.00 0.00 0.00 34 1021.5
20260504181828 25 153 0.0 3.2 0.00 0.00 0.00 33 1021.6
20260504181322 25 220 1.6 4.8 0.00 0.00 0.00 35 1021.6
20260504180831 25 264 0.0 8.0 0.00 0.00 0.00 34 1021.7
20260504180322 25 235 0.0 8.0 0.00 0.00 0.00 36 1021.7
20260504175832 25 118 0.0 1.6 0.00 0.00 0.00 36 1021.8
20260504175320 24 141 0.0 6.4 0.00 0.00 0.00 38 1021.9
20260504174829 24 148 1.6 6.4 0.00 0.00 0.00 36 1021.9
20260504174319 24 184 1.6 4.8 0.00 0.00 0.00 36 1022.0
20260504173829 24 113 1.6 8.0 0.00 0.00 0.00 37 1022.1
20260504173323 25 244 1.6 8.0 0.00 0.00 0.00 35 1022.3
20260504172853 24 57 1.6 3.2 0.00 0.00 0.00 36 1022.3
20260504172322 24 223 0.0 6.4 0.00 0.00 0.00 37 1022.3
20260504171832 24 232 1.6 6.4 0.00 0.00 0.00 39 1022.4
20260504171340 24 191 0.0 3.2 0.00 0.00 0.00 39 1022.5
20260504170830 24 115 0.0 3.2 0.00 0.00 0.00 40 1022.7
20260504170319 23 146 0.0 4.8 0.00 0.00 0.00 40 1022.7